AO-85 (40967 NORAD) Tracking and Keplerian Element Data

This shows tracking and keplerian element data for the satellite.

Feedback or suggestion? Click here.




ElementValue
Catalog40967
NameAO-85
Epoch Orbit7494
Epoch Day312.47283695
Epoch Year2018
RAAN113.1844
Inclination64.7754
Eccentricity0.0213873
Argument of Perigee270.2859
Mean Anonmoly87.3756
Mean Motion14.75812028
Decay Rate2.2E-06
L11 40967U 15058D 18312.47283695 .00000220 00000-0 40316-4 0 04991
L22 40967 064.7754 113.1844 0213873 270.2859 087.3756 14.75812028074948

Live tracking and technical data element details for AO-85 (NORAD 40967). AO-85 can be tracked NOW for your location showing map with azimuth and elevation plus other details from your city location.

Track the satellite on the map from your city or location and see movement details for azimuth, elevation, latitude, longitude, range, height, and movement on the map or in text.







IsCatalogInMostPopularTable: catalog: 40967, numindb: 175
Update: records affected: 1



GetName: 40967 AO-85

Hit Count: updated at: Wed, 14 Nov 2018 11:00:00 GMT